[[{"header":{"parameterUnit":"m.s-1","parameterCategory":1,"la1":30.2991,"la2":30.254,"lo1":-89.0895,"lo2":-89.0444,"dy":0.0017,"dx":0.0017,"nx":28,"ny":28,"refTime":"2023-08-23T09:00:00:Z","depth":0,"parameterNumber":2,"parameterNumberName":"U-component_of_WINDS"},"data":[0,0,0,0,0,0,0,0,0,0,0,0,0,0,0,0,0,0,0,0,0,0,0,0,0,0,0,0,0,0,0,0,0,0,0,0,0,0,0,0,0,0,0,0,0,0,0,0,0,0,0,0,0,0,0,0,0,0,0.669,0.6691,0,0.6792,0.6794,0.6795,0.6811,0.681,0.6809,0.6809,0.6914,0.6918,0.6922,0,0,0,0,0,0,0,0,0,0,0,0,0,0.6511,0.6514,0.669,0.6691,0.6693,0.6792,0.6794,0.6795,0.6811,0.681,0.6809,0.6808,0.6913,0.6917,0.6922,0,0,0,0,0,0,0,0,0,0,0,0,0,0.6598,0.6515,0.669,0.6713,0.6716,0.6792,0.6794,0.6795,0.6812,0.681,0.6809,0.6808,0.6912,0.6917,0.6922,0.6983,0,0,0.6939,0.6942,0,0,0,0,0,0,0,0,0.6593,0.6605,0.6708,0.6711,0.6715,0.6788,0.6769,0.6858,0.6812,0.6775,0.6809,0.6807,0.6873,0.6882,0.6904,0.6988,0.6993,0.694,0.6943,0.6945,0.6947,0,0,0,0,0,0,0,0.6587,0.6601,0.6731,0.671,0.6714,0.6719,0.6729,0.6786,0.6831,0.6778,0.678,0.6792,0.6875,0.6899,0.6907,0.6994,0.694,0.6944,0.6948,0.695,0.7134,0.7136,0,0,0,0,0,0,0.6577,0.6595,0.6727,0.6734,0.665,0.6723,0.6735,0.6766,0.683,0.6839,0.6793,0.6792,0.689,0.69,0.691,0.6987,0.6945,0.695,0.6954,0.7133,0.7135,0.7137,0,0,0,0,0,0,0.6573,0.6588,0.6723,0.6665,0.6682,0.6727,0.6762,0.6768,0.6792,0.6841,0.6849,0.6809,0.6889,0.6903,0.6965,0.699,0.6953,0.6958,0.7131,0.7133,0.7136,0.7138,0,0,0,0,0,0,0.6568,0.6587,0.661,0.6665,0.6686,0.6776,0.6763,0.6771,0.6801,0.6802,0.6858,0.6866,0.6889,0.6957,0.6971,0.6997,0.6962,0.7129,0.7132,0.7135,0.7136,0.7141,0.7144,0,0,0,0,0,0.6561,0.6607,0.6611,0.6627,0.6715,0.6777,0.6789,0.6814,0.6803,0.6827,0.6859,0.6864,0.6985,0.6963,0.6979,0.7007,0.7127,0.7131,0.7135,0.7135,0.714,0.7144,0,0,0,0,0,0,0.6553,0.6614,0.662,0.6684,0.6725,0.678,0.681,0.6819,0.6864,0.6862,0.6892,0.6905,0.6966,0.6993,0.6967,0.707,0.7056,0.7063,0.705,0.7056,0.706,0.7052,0.6967,0,0,0,0,0,0.6559,0.6603,0.6655,0.6707,0.6727,0.6765,0.6793,0.6809,0.6853,0.6871,0.6907,0.6949,0.6997,0.7028,0.7074,0.714,0.7153,0.7168,0.7172,0.7175,0.7181,0.7219,0.7226,0.7148,0.7148,0.7148,0,0,0.6571,0.661,0.6636,0.6706,0.674,0.6786,0.678,0.6829,0.6863,0.6878,0.6939,0.6967,0.7017,0.7082,0.7112,0.7106,0.7205,0.718,0.7182,0.7186,0.7223,0.723,0.7237,0.7151,0.7151,0.715,0,0,0.6617,0.6651,0.6698,0.6732,0.6783,0.6809,0.682,0.6873,0.6892,0.6954,0.6967,0.7009,0.709,0.7125,0.7154,0.7214,0.7222,0.7229,0.725,0.7287,0.7293,0.7298,0.7321,0.7328,0.7234,0.7234,0.7234,0,0.6626,0.6696,0.6722,0.677,0.6801,0.6817,0.6865,0.6897,0.6961,0.6982,0.6975,0.7078,0.7112,0.7186,0.7201,0.7223,0.7238,0.7222,0.729,0.7296,0.7301,0.7323,0.7331,0.7235,0.7235,0.7235,0.7235,0,0.6704,0.6753,0.6785,0.6846,0.6881,0.6929,0.6963,0.6995,0.7008,0.7035,0.7098,0.714,0.7196,0.7215,0.7228,0.7291,0.7286,0.7283,0.727,0.7309,0.733,0.7338,0.7236,0.7235,0.7235,0.7235,0,0,0.6748,0.6823,0.6835,0.6863,0.6921,0.6959,0.7009,0.7063,0.709,0.7134,0.7177,0.7246,0.7245,0.7277,0.7295,0.7327,0.7373,0.7321,0.7323,0.733,0.7446,0.7447,0.7457,0.7379,0.738,0.7382,0.7442,0,0.6801,0.6889,0.6915,0.699,0.7035,0.7051,0.7095,0.7135,0.7161,0.7204,0.7233,0.7282,0.7276,0.7296,0.7329,0.7361,0.7397,0.7357,0.742,0.7422,0.7407,0.7467,0.7469,0.7524,0.745,0.7452,0.7453,0,0.6875,0.692,0.6999,0.7052,0.7072,0.7111,0.7163,0.7204,0.7251,0.7268,0.7304,0.7319,0.7373,0.7356,0.743,0.7402,0.743,0.745,0.7452,0.7459,0.744,0.7477,0.7542,0.755,0.7466,0.7465,0.7464,0,0.6899,0.698,0.7038,0.7062,0.7125,0.7152,0.7179,0.7225,0.7256,0.7302,0.7323,0.7375,0.7403,0.7444,0.7473,0.7458,0.7545,0.7531,0.7562,0.7561,0.7579,0.7578,0.765,0.7596,0.7596,0.7596,0.7596,0,0.6956,0.7004,0.705,0.7086,0.714,0.717,0.7223,0.7252,0.7292,0.7335,0.7351,0.7391,0.7427,0.7471,0.7495,0.7553,0.7566,0.7582,0.7587,0.7581,0.7579,0.7599,0.7596,0.7598,0.7598,0.7597,0.7597,0,0.6992,0.7025,0.7089,0.7144,0.7159,0.7197,0.7244,0.728,0.7307,0.736,0.7375,0.7417,0.7471,0.7504,0.7572,0.7587,0.7652,0.7656,0.7636,0.7639,0.7668,0.7665,0.7757,0.7771,0.7707,0.7707,0.7708,0,0.7027,0.7064,0.7123,0.7152,0.718,0.7227,0.726,0.729,0.7323,0.738,0.7409,0.7464,0.7509,0.7594,0.7631,0.7683,0.7689,0.7718,0.7697,0.7689,0.7691,0.7688,0.7693,0.7721,0.7722,0.7722,0.7723,0,0.7084,0.7099,0.7144,0.7196,0.7234,0.7276,0.7318,0.7342,0.738,0.7416,0.7471,0.7506,0.7575,0.763,0.7685,0.7715,0.7726,0.7729,0.7739,0.7732,0.7719,0.7728,0.7646,0.7727,0.7726,0.7726,0.7726,0.7726,0.7121,0.7156,0.7203,0.7253,0.7288,0.7327,0.7364,0.7396,0.7442,0.7501,0.7516,0.7574,0.7621,0.7697,0.7727,0.7774,0.7769,0.7784,0.7788,0.7791,0.7792,0.7712,0.7784,0.7784,0.7784,0.7784,0.7783,0,0.718,0.7211,0.7258,0.7316,0.7356,0.7363,0.741,0.7443,0.7494,0.7536,0.7581,0.7644,0.7697,0.7739,0.7794,0.7823,0.7829,0.7836,0.7835,0.7841,0.7792,0.7778,0.783,0.783,0.783,0.783,0.783,0.783,0.7216,0.7274,0.7295,0.7371,0.7402,0.7459,0.7485,0.7522,0.7557,0.7627,0.7671,0.7697,0.7741,0.7799,0.7848,0.7859,0.7879,0.7885,0.7897,0.785,0.7845,0.784,0.7827,0.7889,0.7889,0.7943,0.7943,0.7944]},{"header":{"parameterUnit":"m.s-1","parameterCategory":1,"la1":30.2991,"la2":30.254,"lo1":-89.0895,"lo2":-89.0444,"dy":0.0017,"dx":0.0017,"nx":28,"ny":28,"refTime":"2023-08-23T09:00:00:Z","depth":0,"parameterNumber":3,"parameterNumberName":"V-component_of_WINDS"},"data":[0,0,0,0,0,0,0,0,0,0,0,0,0,0,0,0,0,0,0,0,0,0,0,0,0,0,0,0,0,0,0,0,0,0,0,0,0,0,0,0,0,0,0,0,0,0,0,0,0,0,0,0,0,0,0,0,0,0,-0.9531,-0.9532,0,-0.9583,-0.9584,-0.9584,-0.9608,-0.9608,-0.9608,-0.9607,-0.9663,-0.9664,-0.9666,0,0,0,0,0,0,0,0,0,0,0,0,0,-0.9455,-0.9456,-0.9531,-0.9532,-0.9533,-0.9583,-0.9584,-0.9585,-0.9608,-0.9608,-0.9608,-0.9607,-0.9662,-0.9664,-0.9666,0,0,0,0,0,0,0,0,0,0,0,0,0,-0.9495,-0.9456,-0.9531,-0.955,-0.9552,-0.9583,-0.9584,-0.9585,-0.9608,-0.9608,-0.9608,-0.9607,-0.9662,-0.9664,-0.9666,-0.9682,0,0,-0.9673,-0.9674,0,0,0,0,0,0,0,0,-0.9493,-0.9498,-0.9547,-0.9549,-0.9552,-0.9589,-0.9577,-0.9618,-0.9608,-0.9587,-0.9607,-0.9607,-0.9638,-0.9643,-0.9653,-0.9685,-0.9687,-0.9673,-0.9675,-0.9676,-0.9676,0,0,0,0,0,0,0,-0.949,-0.9496,-0.9552,-0.9547,-0.955,-0.9557,-0.9563,-0.9585,-0.9613,-0.9589,-0.959,-0.9596,-0.964,-0.965,-0.9654,-0.9688,-0.9673,-0.9675,-0.9677,-0.9678,-0.9738,-0.9738,0,0,0,0,0,0,-0.9484,-0.9494,-0.955,-0.9554,-0.9521,-0.9558,-0.9565,-0.9577,-0.9612,-0.9618,-0.9596,-0.9597,-0.9646,-0.9651,-0.9656,-0.9678,-0.9676,-0.9678,-0.9679,-0.9737,-0.9738,-0.9738,0,0,0,0,0,0,-0.9482,-0.9489,-0.9548,-0.9524,-0.9532,-0.956,-0.9573,-0.9578,-0.9589,-0.9618,-0.9623,-0.9602,-0.9647,-0.9653,-0.9676,-0.968,-0.9679,-0.9681,-0.9737,-0.9737,-0.9738,-0.9721,0,0,0,0,0,0,-0.948,-0.9488,-0.9494,-0.9524,-0.9533,-0.9566,-0.9574,-0.9579,-0.9592,-0.9594,-0.9625,-0.963,-0.9647,-0.9672,-0.9678,-0.9683,-0.9683,-0.9737,-0.9737,-0.9738,-0.9721,-0.9721,-0.972,0,0,0,0,0,-0.9477,-0.9488,-0.9494,-0.9501,-0.9541,-0.9566,-0.9572,-0.9591,-0.9593,-0.9599,-0.9618,-0.9629,-0.9679,-0.9674,-0.9681,-0.9687,-0.9737,-0.9737,-0.9738,-0.9722,-0.9721,-0.972,0,0,0,0,0,0,-0.9458,-0.9492,-0.9499,-0.952,-0.954,-0.957,-0.9579,-0.9589,-0.961,-0.961,-0.9634,-0.9641,-0.9662,-0.9677,-0.9671,-0.9705,-0.9709,-0.9711,-0.9694,-0.9694,-0.9693,-0.9689,-0.9685,0,0,0,0,0,-0.9456,-0.9472,-0.9502,-0.9517,-0.9527,-0.9551,-0.9563,-0.9575,-0.9598,-0.9606,-0.9627,-0.9649,-0.967,-0.9683,-0.9703,-0.9724,-0.9731,-0.9732,-0.9731,-0.973,-0.9732,-0.9745,-0.9745,-0.9739,-0.9739,-0.9739,0,0,-0.9452,-0.9472,-0.9482,-0.9513,-0.9531,-0.9548,-0.9558,-0.9576,-0.959,-0.961,-0.9632,-0.9648,-0.9674,-0.9696,-0.9707,-0.9709,-0.9735,-0.9731,-0.973,-0.9732,-0.9745,-0.9746,-0.9746,-0.974,-0.974,-0.974,0,0,-0.9454,-0.9471,-0.9485,-0.9502,-0.9528,-0.9544,-0.9548,-0.9577,-0.9588,-0.9611,-0.9626,-0.9644,-0.9678,-0.9696,-0.971,-0.972,-0.9731,-0.9726,-0.9723,-0.9735,-0.9736,-0.9736,-0.974,-0.9741,-0.9727,-0.9727,-0.9727,0,-0.9446,-0.9472,-0.9492,-0.9509,-0.9523,-0.9541,-0.9557,-0.9573,-0.9604,-0.9613,-0.9616,-0.966,-0.9679,-0.9706,-0.9708,-0.9719,-0.9724,-0.9722,-0.9734,-0.9735,-0.9736,-0.9739,-0.9741,-0.9726,-0.9727,-0.9727,-0.9727,0,-0.9461,-0.948,-0.9489,-0.9518,-0.9533,-0.9549,-0.9572,-0.9585,-0.9597,-0.9613,-0.9637,-0.966,-0.9686,-0.9693,-0.9705,-0.9722,-0.9723,-0.9729,-0.9733,-0.9735,-0.9739,-0.9741,-0.9725,-0.9726,-0.9726,-0.9726,0,0,-0.9452,-0.9492,-0.9495,-0.9509,-0.9539,-0.9554,-0.9571,-0.9596,-0.9607,-0.9628,-0.9644,-0.9674,-0.968,-0.9696,-0.971,-0.9721,-0.9727,-0.9726,-0.9727,-0.9726,-0.9748,-0.9743,-0.9744,-0.9735,-0.9735,-0.9735,-0.9746,0,-0.9458,-0.9489,-0.9508,-0.9532,-0.955,-0.9568,-0.9583,-0.9604,-0.962,-0.9638,-0.9656,-0.9677,-0.9683,-0.9693,-0.9704,-0.9724,-0.9732,-0.9724,-0.9751,-0.9751,-0.9743,-0.9746,-0.9741,-0.9749,-0.9747,-0.9748,-0.9748,0,-0.9469,-0.9489,-0.9515,-0.9544,-0.9552,-0.9565,-0.959,-0.9607,-0.9631,-0.9642,-0.9659,-0.9674,-0.9694,-0.9697,-0.9726,-0.972,-0.9732,-0.9743,-0.9744,-0.9747,-0.9749,-0.9749,-0.9752,-0.9753,-0.9751,-0.975,-0.975,0,-0.946,-0.9494,-0.9514,-0.9525,-0.9559,-0.9568,-0.9583,-0.9607,-0.962,-0.9642,-0.9652,-0.9676,-0.9689,-0.9708,-0.9729,-0.9729,-0.9756,-0.976,-0.9766,-0.9766,-0.9771,-0.977,-0.9776,-0.9779,-0.9779,-0.9779,-0.9779,0,-0.9465,-0.948,-0.951,-0.9522,-0.954,-0.9562,-0.9579,-0.9595,-0.9617,-0.9633,-0.9651,-0.9666,-0.9693,-0.9712,-0.9728,-0.975,-0.9756,-0.9766,-0.977,-0.9764,-0.9763,-0.9773,-0.9773,-0.9779,-0.9779,-0.9779,-0.9779,0,-0.9457,-0.9478,-0.9501,-0.9531,-0.9539,-0.9551,-0.9577,-0.959,-0.9607,-0.9628,-0.9634,-0.9661,-0.9684,-0.9707,-0.9738,-0.975,-0.9771,-0.9777,-0.9763,-0.9765,-0.977,-0.9769,-0.9782,-0.9785,-0.9786,-0.9786,-0.9786,0,-0.9459,-0.9471,-0.9502,-0.9514,-0.9528,-0.9547,-0.9561,-0.9583,-0.9597,-0.9626,-0.9636,-0.966,-0.9681,-0.9718,-0.9741,-0.9765,-0.9772,-0.9774,-0.9775,-0.9769,-0.9772,-0.9771,-0.9772,-0.9774,-0.9773,-0.9773,-0.9773,0,-0.9459,-0.9469,-0.9488,-0.9511,-0.9528,-0.9547,-0.9567,-0.9576,-0.9603,-0.9618,-0.9641,-0.9657,-0.9689,-0.9714,-0.9741,-0.9757,-0.977,-0.9773,-0.9776,-0.977,-0.9761,-0.9766,-0.9761,-0.9772,-0.9772,-0.9773,-0.9773,-0.9773,-0.9456,-0.9468,-0.9492,-0.9513,-0.953,-0.9549,-0.9563,-0.9581,-0.9601,-0.9628,-0.9641,-0.9665,-0.969,-0.9727,-0.9743,-0.9763,-0.9766,-0.977,-0.9771,-0.9772,-0.9771,-0.9758,-0.9768,-0.9768,-0.9768,-0.9769,-0.9769,0,-0.9458,-0.9474,-0.9493,-0.9521,-0.9538,-0.9548,-0.9571,-0.9584,-0.9605,-0.9627,-0.9646,-0.9674,-0.9698,-0.9723,-0.9749,-0.976,-0.9766,-0.9766,-0.9765,-0.9769,-0.9766,-0.9761,-0.976,-0.976,-0.976,-0.976,-0.976,-0.976,-0.9461,-0.9481,-0.9494,-0.9523,-0.954,-0.9563,-0.9575,-0.9593,-0.961,-0.964,-0.9659,-0.9675,-0.9699,-0.9726,-0.9749,-0.9756,-0.9765,-0.9762,-0.9771,-0.9768,-0.9769,-0.9769,-0.9765,-0.9764,-0.9764,-0.9772,-0.9772,-0.9772]}]]